Caribou, ME

11:58 PM EST on November 18, 2017 (GMT -0500)
Caribou Municipal

Weather History for KCAR - January, 2013

Change the Weather History Date:

Thursday, January 17, 2013

  Actual Average Record
Temperature  
Mean Temperature 10 °F 10 °F  
Max Temperature 31 °F 19 °F 47 °F (1959)
Min Temperature -11 °F 0 °F -33 °F (2009)
Degree Days  
Heating Degree Days 55 56  
Month to date heating degree days 832 925  
Since 1 July heating degree days 4012 4519  
Cooling Degree Days 0 0  
Month to date cooling degree days 0 0  
Year to date cooling degree days 0 0  
Moisture  
Dew Point 10 °F    
Average Humidity 67    
Maximum Humidity 92    
Minimum Humidity 41    
Precipitation  
Precipitation 0.07 in 0.09 in 0.77 in (1995)
Month to date precipitation 1.11 1.51  
Year to date precipitation 1.11 1.51  
Snow  
Snow 0.50 in 0.80 in 10.90 in (1994)
Month to date snowfall 11.3 13.8  
Since 1 July snowfall 39.8 48.9  
Snow Depth 6.00 in    
Sea Level Pressure  
Sea Level Pressure 29.79 in    
Wind  
Wind Speed 10 mph (West)    
Max Wind Speed 28 mph    
Max Gust Speed 33 mph    
Visibility 7 miles    
Events Fog , Snow    
T = Trace of Precipitation, MM = Missing Value Source: NWS Daily Summary

Daily Weather History Graph

Daily Weather History Graph

Search for Another Location

Airport or City:

Trip Planner

Search our weather history database for the weather conditions in past years. The results will help you decide how hot, cold, wet, or windy it might be!

Date:

Astronomy

Jan. 17, 2013 Rise Set
Actual Time 7:11 AM EST 4:13 PM EST
Civil Twilight 6:37 AM EST 4:47 PM EST
Nautical Twilight 6:00 AM EST 5:25 PM EST
Astronomical Twilight 5:23 AM EST 6:01 PM EST
Moon 9:48 AM EST (1/17) 11:31 PM EST (1/17)
Length of Visible Light 10h 09m
Length of Day
9h 02m
Waxing Crescent, 37% of the Moon is Illuminated
Jan 17
Waxing Crescent
Jan 18
First Quarter
Jan 26
Full
Feb 3
Last Quarter
Feb 10
New

Hourly Weather History & Observations

Time (EST) Temp. Windchill Dew Point Humidity Pressure Visibility Wind Dir Wind Speed Gust Speed Precip Events Conditions
12:13 AM 26.6 °F 22.6 °F 24.8 °F 93% 29.67 in 1.2 mi SSW 3.5 mph - 0.02 in Snow Light Snow
12:23 AM 26.6 °F 21.2 °F 24.8 °F 93% 29.66 in 1.5 mi South 4.6 mph - 0.02 in Snow Light Snow
12:33 AM 26.6 °F 22.6 °F 24.8 °F 93% 29.66 in 1.2 mi South 3.5 mph - 0.03 in Snow Light Snow
12:54 AM 26.1 °F 21.9 °F 25.0 °F 96% 29.69 in 1.0 mi SSW 3.5 mph - 0.05 in Snow Light Snow
1:21 AM 26.6 °F 20.0 °F 24.8 °F 93% 29.65 in 1.8 mi South 5.8 mph - 0.01 in Snow Light Snow
1:28 AM 26.6 °F 21.2 °F 24.8 °F 93% 29.65 in 2.5 mi South 4.6 mph - 0.02 in Snow Light Snow
1:36 AM 26.6 °F 22.6 °F 24.8 °F 93% 29.65 in 4.0 mi South 3.5 mph - 0.02 in Snow Light Snow
1:45 AM 26.6 °F 22.6 °F 24.8 °F 93% 29.65 in 4.0 mi South 3.5 mph - 0.02 in   Overcast
1:54 AM 27.0 °F 23.0 °F 25.0 °F 92% 29.69 in 7.0 mi SSW 3.5 mph - 0.02 in   Overcast
2:05 AM 26.6 °F 22.6 °F 24.8 °F 93% 29.65 in 10.0 mi SW 3.5 mph - N/A   Overcast
2:54 AM 27.0 °F 21.6 °F 25.0 °F 92% 29.67 in 10.0 mi SSW 4.6 mph - N/A   Overcast
3:06 AM 26.6 °F 20.0 °F 24.8 °F 93% 29.63 in 10.0 mi South 5.8 mph - N/A   Overcast
3:33 AM 28.4 °F 21.2 °F 24.8 °F 86% 29.61 in 10.0 mi SSW 6.9 mph - N/A   Overcast
3:54 AM 28.0 °F 21.7 °F 25.0 °F 88% 29.64 in 10.0 mi SSW 5.8 mph - N/A   Overcast
4:54 AM 28.9 °F 21.9 °F 25.0 °F 85% 29.62 in 10.0 mi SSW 6.9 mph - N/A   Overcast
5:54 AM 28.9 °F 21.1 °F 24.1 °F 82% 29.61 in 10.0 mi SW 8.1 mph - N/A   Overcast
6:54 AM 28.9 °F 19.8 °F 24.1 °F 82% 29.61 in 10.0 mi SW 10.4 mph - N/A   Overcast
7:54 AM 28.0 °F 20.0 °F 24.1 °F 85% 29.64 in 10.0 mi SW 8.1 mph - N/A   Scattered Clouds
8:54 AM 28.9 °F 21.1 °F 24.1 °F 82% 29.65 in 7.0 mi SSW 8.1 mph - N/A   Overcast
9:54 AM 30.9 °F 21.7 °F 25.0 °F 79% 29.65 in 10.0 mi WSW 11.5 mph 18.4 mph N/A   Overcast
9:59 AM 28.4 °F 14.7 °F 23.0 °F 80% 29.64 in 0.8 mi NNW 21.9 mph 31.1 mph 0.00 in Snow Light Snow
10:05 AM 23.0 °F 8.3 °F 19.4 °F 86% 29.65 in 0.2 mi NNW 19.6 mph 31.1 mph 0.01 in Fog , Snow Heavy Snow
10:14 AM 23.0 °F 9.2 °F 19.4 °F 86% 29.65 in 0.2 mi NNW 17.3 mph 26.5 mph 0.01 in Fog , Snow Snow
10:28 AM 21.2 °F 7.8 °F 15.8 °F 80% 29.66 in 1.0 mi NNW 15.0 mph 23.0 mph 0.01 in Snow Light Snow
10:31 AM 21.2 °F 6.8 °F 15.8 °F 80% 29.67 in 2.5 mi NNW 17.3 mph 23.0 mph 0.01 in Snow Light Snow
10:35 AM 21.2 °F 6.4 °F 15.8 °F 80% 29.67 in 8.0 mi NW 18.4 mph 24.2 mph 0.01 in Snow Light Snow
10:54 AM 21.9 °F 9.2 °F 15.1 °F 75% 29.71 in 10.0 mi NNW 13.8 mph - 0.01 in   Mostly Cloudy
11:54 AM 18.0 °F 4.2 °F 10.0 °F 71% 29.75 in 10.0 mi North 13.8 mph - 0.00 in   Clear
12:15 PM 15.8 °F 1.4 °F 6.8 °F 68% 29.74 in 9.0 mi NNW 13.8 mph 23.0 mph 0.00 in   Mostly Cloudy
12:40 PM 14.0 °F -0.8 °F 3.2 °F 62% 29.77 in 10.0 mi North 13.8 mph 24.2 mph 0.00 in   Overcast
12:54 PM 12.9 °F -6.1 °F 1.0 °F 59% 29.83 in 8.0 mi NNW 23.0 mph 32.2 mph 0.00 in   Overcast
1:54 PM 9.0 °F -9.0 °F -5.1 °F 53% 29.88 in 8.0 mi NNW 17.3 mph 26.5 mph N/A   Clear
2:54 PM 7.0 °F -11.0 °F -11.9 °F 42% 29.96 in 10.0 mi NNW 16.1 mph - N/A   Clear
3:54 PM 3.0 °F -17.8 °F -15.0 °F 43% 30.02 in 10.0 mi NNW 19.6 mph 25.3 mph N/A   Clear
4:54 PM -0.0 °F -18.7 °F -18.9 °F 41% 30.05 in 10.0 mi NNW 13.8 mph - N/A   Clear
5:54 PM -2.0 °F -19.6 °F -18.9 °F 45% 30.07 in 10.0 mi NW 11.5 mph - N/A   Clear
6:54 PM -5.1 °F -17.6 °F -20.0 °F 49% 30.12 in 10.0 mi North 5.8 mph - N/A   Clear
7:54 PM -6.0 °F -27.0 °F -20.9 °F 49% 30.14 in 10.0 mi NNW 15.0 mph - N/A   Clear
8:54 PM -6.0 °F -25.5 °F -20.0 °F 51% 30.15 in 10.0 mi NNW 12.7 mph 18.4 mph N/A   Clear
9:54 PM -7.1 °F -23.9 °F -18.0 °F 59% 30.16 in 10.0 mi NNW 9.2 mph - N/A   Clear
10:54 PM -9.0 °F - -18.9 °F 62% 30.15 in 10.0 mi Calm Calm - N/A   Clear
11:54 PM -9.9 °F -19.2 °F -18.9 °F 65% 30.16 in 10.0 mi NW 3.5 mph - N/A   Clear